Elkins, WV

2:18 AM EST on November 19, 2019 (GMT -0500)
Elkins-Randolph County

Weather History for KEKN - September, 2019

Change the Weather History Date:

Sunday, September 22, 2019

  Actual Average Record
Temperature  
Mean Temperature 72 °F 60 °F  
Max Temperature 88 °F 72 °F 89 °F (1914)
Min Temperature 55 °F 48 °F 30 °F (1999)
Degree Days  
Heating Degree Days 0 6  
Month to date heating degree days 4 70  
Since 1 July heating degree days 11 100  
Cooling Degree Days 6 1  
Month to date cooling degree days 114 40  
Year to date cooling degree days 785 466  
Growing Degree Days 22 (Base 50)    
Moisture  
Dew Point 57 °F    
Average Humidity 81    
Maximum Humidity 93    
Minimum Humidity 35    
Precipitation  
Precipitation 0.00 in 0.12 in 1.32 in (1919)
Month to date precipitation T 2.71  
Year to date precipitation 37.71 35.52  
Snow  
Snow 0.00 in 0.00 in 0.00 in (2016)
Month to date snowfall 0.0 0.0  
Since 1 September snowfall 0.0 0.0  
Snow Depth 0.00 in    
Sea Level Pressure  
Sea Level Pressure 30.22 in    
Wind  
Wind Speed 1 mph ()    
Max Wind Speed 12 mph    
Max Gust Speed 16 mph    
Visibility 4.2 miles    
Events Fog    
T = Trace of Precipitation, MM = Missing Value Source: Averaged Metar Reports

Daily Weather History Graph

Daily Weather History Graph

Search for Another Location

Airport or City:

Astronomy

Sep. 22, 2019 Rise Set
Actual Time 7:06 AM EDT 7:16 PM EDT
Civil Twilight 6:40 AM EDT 7:43 PM EDT
Nautical Twilight 6:09 AM EDT 8:14 PM EDT
Astronomical Twilight 5:37 AM EDT 8:46 PM EDT
Moon No Moon Rise 3:07 PM EDT (9/22)
Length of Visible Light 13h 03m
Length of Day
12h 09m
Last Quarter, 44% of the Moon is Illuminated
Sep 22
Last Quarter
Sep 28
New
Oct 5
First Quarter
Oct 13
Full
Oct 21
Last Quarter

Hourly Weather History & Observations

Time (EDT) Temp. Heat Index Dew Point Humidity Pressure Visibility Wind Dir Wind Speed Gust Speed Precip Events Conditions
12:29 AM 61.0 °F - 57.9 °F 90% 30.28 in 1.8 mi Calm Calm - N/A   Clear
12:38 AM 62.1 °F - 57.9 °F 86% 30.27 in 3.0 mi Calm Calm - N/A   Clear
12:51 AM 63.0 °F - 59.0 °F 87% 30.24 in 5.0 mi Calm Calm - N/A   Clear
1:51 AM 60.1 °F - 57.0 °F 90% 30.25 in 6.0 mi Calm Calm - N/A   Clear
2:05 AM 59.0 °F - 57.0 °F 93% 30.27 in 1.8 mi Calm Calm - N/A   Clear
2:14 AM 59.0 °F - 55.9 °F 90% 30.27 in 2.0 mi Calm Calm - N/A   Scattered Clouds
2:21 AM 60.1 °F - 57.0 °F 90% 30.27 in 0.8 mi Calm Calm - N/A   Mist
2:44 AM 59.0 °F - 55.4 °F 88% 30.26 in 2.0 mi Calm Calm - N/A   Mostly Cloudy
2:51 AM 59.0 °F - 55.9 °F 90% 30.24 in 1.8 mi Calm Calm - N/A   Scattered Clouds
2:56 AM 59.0 °F - 55.9 °F 90% 30.26 in 0.8 mi Calm Calm - N/A   Mist
3:03 AM 59.0 °F - 55.9 °F 90% 30.26 in 1.2 mi Calm Calm - N/A   Partly Cloudy
3:11 AM 57.9 °F - 55.9 °F 93% 30.26 in 2.0 mi Calm Calm - N/A   Partly Cloudy
3:15 AM 57.9 °F - 55.0 °F 90% 30.26 in 1.0 mi Calm Calm - N/A   Mist
3:30 AM 59.0 °F - 55.9 °F 90% 30.26 in 0.5 mi Calm Calm - N/A Fog Fog
3:36 AM 59.0 °F - 55.9 °F 90% 30.26 in 1.8 mi Calm Calm - N/A   Scattered Clouds
3:38 AM 57.9 °F - 55.9 °F 93% 30.26 in 3.0 mi Calm Calm - N/A   Scattered Clouds
3:51 AM 57.9 °F - 55.0 °F 90% 30.23 in 6.0 mi Calm Calm - N/A   Partly Cloudy
4:01 AM 57.9 °F - 55.0 °F 90% 30.25 in 1.8 mi Calm Calm - N/A   Clear
4:22 AM 57.0 °F - 55.0 °F 93% 30.25 in 3.0 mi Calm Calm - N/A   Clear
4:34 AM 57.0 °F - 55.0 °F 93% 30.25 in 1.8 mi Calm Calm - N/A   Clear
4:51 AM 57.0 °F - 54.0 °F 89% 30.23 in 1.5 mi Calm Calm - N/A   Scattered Clouds
4:57 AM 57.0 °F - 54.0 °F 89% 30.26 in 4.0 mi Calm Calm - N/A   Scattered Clouds
5:32 AM 57.0 °F - 54.0 °F 89% 30.26 in 0.8 mi Calm Calm - N/A   Mist
5:51 AM 57.0 °F - 54.0 °F 89% 30.25 in 0.8 mi Calm Calm - N/A   Mist
6:04 AM 55.9 °F - 54.0 °F 93% 30.27 in 0.2 mi Calm Calm - N/A Fog Fog
6:14 AM 55.9 °F - 54.0 °F 93% 30.27 in 0.5 mi Calm Calm - N/A Fog Fog
6:51 AM 55.9 °F - 54.0 °F 93% 30.25 in 0.2 mi Calm Calm - N/A Fog Fog
7:51 AM 57.9 °F - 55.0 °F 90% 30.26 in 0.2 mi Calm Calm - N/A Fog Fog
7:58 AM 59.0 °F - 55.9 °F 90% 30.27 in 0.5 mi Calm Calm - N/A Fog Fog
8:23 AM 60.1 °F - 57.0 °F 90% 30.27 in 0.2 mi Calm Calm - N/A Fog Fog
8:40 AM 60.1 °F - 57.0 °F 90% 30.28 in 0.8 mi WNW 3.5 mph - N/A   Overcast
8:51 AM 61.0 °F - 57.9 °F 90% 30.27 in 0.8 mi Calm Calm - N/A   Overcast
9:00 AM 62.1 °F - 57.9 °F 86% 30.28 in 1.5 mi Calm Calm - N/A   Mostly Cloudy
9:04 AM 62.1 °F - 59.0 °F 90% 30.28 in 3.0 mi Calm Calm - N/A   Mostly Cloudy
9:16 AM 63.0 °F - 59.0 °F 87% 30.28 in 6.0 mi Calm Calm - N/A   Scattered Clouds
9:51 AM 68.0 °F - 61.0 °F 78% 30.26 in 8.0 mi Calm Calm - N/A   Clear
10:51 AM 75.9 °F - 62.1 °F 62% 30.24 in 10.0 mi Calm Calm - N/A   Clear
11:51 AM 81.0 °F 81.9 °F 62.1 °F 52% 30.20 in 10.0 mi Calm Calm - N/A   Clear
12:51 PM 82.9 °F 82.8 °F 59.0 °F 44% 30.17 in 10.0 mi Variable 4.6 mph - N/A   Partly Cloudy
1:51 PM 87.1 °F 86.1 °F 57.9 °F 37% 30.14 in 10.0 mi West 8.1 mph - N/A   Mostly Cloudy
2:51 PM 87.1 °F 86.1 °F 57.9 °F 37% 30.12 in 9.0 mi NNW 8.1 mph - N/A   Partly Cloudy
3:51 PM 88.0 °F 86.7 °F 57.0 °F 35% 30.09 in 8.0 mi West 8.1 mph - N/A   Clear
4:51 PM 86.0 °F 85.4 °F 59.0 °F 40% 30.09 in 9.0 mi WNW 9.2 mph - N/A   Clear
5:51 PM 84.9 °F 84.8 °F 60.1 °F 43% 30.08 in 9.0 mi WNW 6.9 mph - N/A   Clear
6:51 PM 81.0 °F 81.9 °F 62.1 °F 52% 30.09 in 10.0 mi Calm Calm - N/A   Clear
7:51 PM 73.0 °F - 62.1 °F 68% 30.09 in 10.0 mi Calm Calm - N/A   Clear
8:51 PM 68.0 °F - 61.0 °F 78% 30.09 in 10.0 mi Calm Calm - N/A   Clear
9:51 PM 64.9 °F - 60.1 °F 84% 30.09 in 10.0 mi Calm Calm - N/A   Clear
10:51 PM 64.0 °F - 59.0 °F 84% 30.08 in 10.0 mi Calm Calm - N/A   Clear
11:51 PM 61.0 °F - 57.9 °F 90% 30.08 in 8.0 mi Calm Calm - N/A   Clear